| time (UTC) | temp F | wind direction | speed MPH | gust MPH | rain 1hr in | rain 24hr in | rain mn in | humidity % | barometer mb |
| 20260906090557 | 70 | 169 | 0.0 | 0.0 | 0.00 | 0.63 | 0.01 | 95 | 1009.5 |
| 20260906090058 | 70 | 169 | 0.0 | 0.0 | 0.00 | 0.63 | 0.01 | 95 | 1009.5 |
| 20260906085556 | 70 | 169 | 0.0 | 0.0 | 0.00 | 0.63 | 0.01 | 95 | 1009.5 |
| 20260906085056 | 70 | 169 | 0.0 | 0.0 | 0.00 | 0.63 | 0.01 | 95 | 1009.4 |
| 20260906084601 | 70 | 169 | 0.0 | 0.0 | 0.00 | 0.63 | 0.01 | 95 | 1009.3 |
| 20260906084100 | 70 | 169 | 0.0 | 0.0 | 0.00 | 0.63 | 0.01 | 95 | 1009.3 |
| 20260906083600 | 70 | 169 | 0.0 | 0.0 | 0.00 | 0.63 | 0.01 | 95 | 1009.4 |
| 20260906083057 | 70 | 169 | 0.0 | 0.0 | 0.00 | 0.63 | 0.01 | 95 | 1009.4 |
| 20260906082557 | 70 | 169 | 0.0 | 0.0 | 0.00 | 0.63 | 0.01 | 95 | 1009.4 |
| 20260906082057 | 70 | 169 | 0.0 | 0.0 | 0.00 | 0.63 | 0.01 | 95 | 1009.5 |
| 20260906081559 | 70 | 169 | 0.0 | 0.0 | 0.00 | 0.63 | 0.01 | 95 | 1009.5 |
| 20260906081057 | 70 | 169 | 0.0 | 0.0 | 0.00 | 0.63 | 0.01 | 95 | 1009.4 |
| 20260906080600 | 70 | 169 | 0.0 | 0.0 | 0.00 | 0.63 | 0.01 | 95 | 1009.3 |
| 20260906080058 | 70 | 169 | 0.0 | 0.0 | 0.00 | 0.63 | 0.01 | 95 | 1009.1 |
| 20260906075600 | 70 | 169 | 0.0 | 0.0 | 0.00 | 0.63 | 0.01 | 95 | 1009.1 |
| 20260906075057 | 70 | 169 | 0.0 | 0.0 | 0.00 | 0.63 | 0.01 | 95 | 1009.0 |
| 20260906074557 | 71 | 169 | 0.0 | 0.0 | 0.00 | 0.63 | 0.01 | 95 | 1009.0 |
| 20260906074056 | 71 | 169 | 0.0 | 0.0 | 0.00 | 0.63 | 0.01 | 95 | 1009.1 |
| 20260906073558 | 71 | 169 | 0.0 | 0.0 | 0.00 | 0.63 | 0.01 | 95 | 1009.1 |
| 20260906073057 | 71 | 169 | 0.0 | 0.0 | 0.00 | 0.63 | 0.01 | 95 | 1009.1 |
| 20260906072557 | 71 | 169 | 0.0 | 0.0 | 0.00 | 0.63 | 0.01 | 95 | 1009.1 |
| 20260906072100 | 71 | 169 | 0.0 | 0.0 | 0.00 | 0.63 | 0.01 | 95 | 1009.1 |
| 20260906071557 | 71 | 169 | 0.0 | 0.0 | 0.00 | 0.63 | 0.01 | 95 | 1009.1 |
| 20260906071057 | 71 | 169 | 0.0 | 0.0 | 0.00 | 0.63 | 0.01 | 95 | 1009.2 |
| 20260906070557 | 71 | 169 | 0.0 | 0.0 | 0.00 | 0.63 | 0.01 | 95 | 1009.2 |
| 20260906070057 | 71 | 169 | 0.0 | 0.0 | 0.00 | 0.63 | 0.01 | 95 | 1009.3 |
| 20260906065557 | 71 | 169 | 0.0 | 0.0 | 0.00 | 0.63 | 0.01 | 95 | 1009.3 |
| 20260906065057 | 71 | 169 | 0.0 | 0.0 | 0.00 | 0.63 | 0.01 | 95 | 1009.4 |
| 20260906064557 | 71 | 169 | 0.0 | 0.0 | 0.00 | 0.63 | 0.01 | 94 | 1009.4 |
| 20260906064057 | 71 | 169 | 0.0 | 0.0 | 0.00 | 0.63 | 0.01 | 94 | 1009.5 |
| 20260906063557 | 71 | 169 | 0.0 | 0.0 | 0.00 | 0.63 | 0.01 | 94 | 1009.5 |
| 20260906063057 | 71 | 169 | 0.0 | 0.0 | 0.00 | 0.63 | 0.01 | 94 | 1009.5 |
| 20260906062556 | 71 | 169 | 0.0 | 0.0 | 0.00 | 0.63 | 0.01 | 94 | 1009.4 |
| 20260906062057 | 71 | 169 | 0.0 | 0.0 | 0.00 | 0.63 | 0.01 | 94 | 1009.3 |
| 20260906061557 | 71 | 169 | 0.0 | 0.0 | 0.00 | 0.63 | 0.01 | 94 | 1009.4 |
| 20260906061056 | 71 | 169 | 0.0 | 0.0 | 0.00 | 0.63 | 0.01 | 94 | 1009.6 |
| 20260906060557 | 71 | 169 | 0.0 | 0.0 | 0.00 | 0.63 | 0.01 | 95 | 1009.7 |
| 20260906060057 | 71 | 169 | 0.0 | 0.0 | 0.01 | 0.63 | 0.01 | 95 | 1009.8 |
| 20260906055556 | 71 | 169 | 0.0 | 0.0 | 0.01 | 0.63 | 0.01 | 94 | 1009.7 |
| 20260906055057 | 71 | 169 | 0.0 | 0.0 | 0.01 | 0.63 | 0.01 | 94 | 1009.8 |
| 20260906054616 | 71 | 169 | 0.0 | 0.0 | 0.01 | 0.63 | 0.01 | 94 | 1009.8 |
| 20260906054059 | 71 | 169 | 0.0 | 0.0 | 0.01 | 0.63 | 0.01 | 94 | 1009.9 |
| 20260906053557 | 71 | 169 | 0.0 | 0.0 | 0.01 | 0.63 | 0.01 | 94 | 1009.9 |
| 20260906053057 | 71 | 169 | 0.0 | 0.0 | 0.01 | 0.63 | 0.01 | 94 | 1009.8 |
| 20260906052557 | 71 | 169 | 0.0 | 0.0 | 0.01 | 0.63 | 0.01 | 94 | 1010.0 |
| 20260906052057 | 71 | 169 | 0.0 | 0.0 | 0.01 | 0.63 | 0.01 | 94 | 1010.1 |
| 20260906051556 | 71 | 169 | 0.0 | 0.0 | 0.01 | 0.63 | 0.01 | 94 | 1010.0 |
| 20260906051058 | 71 | 169 | 0.0 | 0.0 | 0.01 | 0.63 | 0.01 | 94 | 1009.9 |
| 20260906050556 | 71 | 169 | 0.0 | 0.0 | 0.01 | 0.63 | 0.01 | 94 | 1010.1 |
| 20260906050105 | 71 | 169 | 0.0 | 0.0 | 0.00 | 0.62 | 0.00 | 94 | 1010.2 |
| 20260906045558 | 71 | 169 | 0.0 | 0.0 | 0.00 | 0.62 | 0.00 | 94 | 1010.2 |
| 20260906045058 | 71 | 169 | 0.0 | 0.0 | 0.00 | 0.62 | 0.00 | 94 | 1010.2 |
| 20260906044601 | 71 | 169 | 0.0 | 0.0 | 0.00 | 0.62 | 0.00 | 94 | 1010.2 |
| 20260906044058 | 71 | 169 | 0.0 | 0.0 | 0.00 | 0.62 | 0.00 | 94 | 1010.2 |
| 20260906043558 | 71 | 169 | 0.0 | 0.0 | 0.00 | 0.62 | 0.00 | 94 | 1010.1 |
| 20260906043058 | 72 | 169 | 0.0 | 0.0 | 0.00 | 0.62 | 0.00 | 94 | 1010.3 |
| 20260906042557 | 71 | 169 | 0.0 | 0.0 | 0.00 | 0.62 | 0.00 | 94 | 1010.3 |
| 20260906042058 | 71 | 169 | 0.0 | 0.0 | 0.00 | 0.62 | 0.00 | 94 | 1010.3 |
| 20260906041558 | 71 | 169 | 0.0 | 0.0 | 0.00 | 0.62 | 0.00 | 94 | 1010.4 |
| 20260906041059 | 71 | 169 | 0.0 | 0.0 | 0.00 | 0.62 | 0.00 | 94 | 1010.3 |
| 20260906040558 | 71 | 169 | 0.0 | 0.0 | 0.00 | 0.62 | 0.00 | 94 | 1010.3 |
| 20260906040104 | 72 | 169 | 0.0 | 0.0 | 0.00 | 0.62 | 0.00 | 94 | 1010.3 |
| 20260906040005 | 72 | 169 | 0.0 | 0.0 | 0.00 | 0.62 | 0.00 | 94 | 1010.3 |
| 20260906035559 | 72 | 169 | 0.0 | 0.0 | 0.00 | 0.62 | 0.62 | 94 | 1010.4 |
| 20260906035100 | 72 | 169 | 0.0 | 0.0 | 0.00 | 0.62 | 0.62 | 94 | 1010.5 |
| 20260906034601 | 72 | 169 | 0.0 | 0.0 | 0.00 | 0.62 | 0.62 | 94 | 1010.5 |
| 20260906034059 | 72 | 169 | 0.0 | 0.0 | 0.00 | 0.62 | 0.62 | 94 | 1010.5 |
| 20260906033600 | 72 | 169 | 0.0 | 0.0 | 0.00 | 0.62 | 0.62 | 94 | 1010.5 |
| 20260906033122 | 72 | 169 | 0.0 | 0.0 | 0.00 | 0.62 | 0.62 | 94 | 1010.5 |
| 20260906032600 | 72 | 169 | 0.0 | 0.0 | 0.00 | 0.62 | 0.62 | 94 | 1010.7 |
| 20260906032100 | 72 | 169 | 0.0 | 0.0 | 0.00 | 0.62 | 0.62 | 94 | 1010.6 |
| 20260906031614 | 72 | 169 | 0.0 | 0.0 | 0.00 | 0.62 | 0.62 | 94 | 1010.8 |
| 20260906031100 | 72 | 169 | 0.0 | 0.0 | 0.00 | 0.62 | 0.62 | 94 | 1010.8 |
| 20260906030600 | 72 | 176 | 0.0 | 0.0 | 0.00 | 0.62 | 0.62 | 94 | 1010.7 |
| 20260906030059 | 72 | 161 | 0.0 | 0.0 | 0.00 | 0.62 | 0.62 | 94 | 1010.8 |
| 20260906030002 | 72 | 157 | 0.0 | 0.0 | 0.00 | 0.62 | 0.62 | 94 | 1010.8 |
| 20260906025558 | 72 | 119 | 0.0 | 0.0 | 0.00 | 0.62 | 0.62 | 93 | 1010.7 |
| 20260906025059 | 72 | 119 | 0.0 | 0.0 | 0.00 | 0.62 | 0.62 | 93 | 1010.6 |
| 20260906024606 | 72 | 119 | 0.0 | 0.0 | 0.00 | 0.62 | 0.62 | 93 | 1010.7 |
| 20260906024059 | 72 | 152 | 0.0 | 0.0 | 0.00 | 0.62 | 0.62 | 93 | 1010.7 |
| 20260906023602 | 72 | 105 | 0.0 | 0.0 | 0.00 | 0.62 | 0.62 | 93 | 1010.7 |
| 20260906023102 | 72 | 105 | 0.0 | 0.0 | 0.00 | 0.62 | 0.62 | 93 | 1010.5 |
| 20260906022558 | 72 | 105 | 0.0 | 0.0 | 0.00 | 0.62 | 0.62 | 93 | 1010.4 |
| 20260906022101 | 72 | 105 | 0.0 | 0.0 | 0.00 | 0.62 | 0.62 | 93 | 1010.4 |
| 20260906021604 | 72 | 105 | 0.0 | 0.0 | 0.00 | 0.62 | 0.62 | 93 | 1010.4 |
| 20260906021058 | 72 | 105 | 0.0 | 0.0 | 0.00 | 0.62 | 0.62 | 93 | 1010.3 |
| 20260906020559 | 72 | 105 | 0.0 | 0.0 | 0.00 | 0.62 | 0.62 | 93 | 1010.4 |
| 20260906020058 | 72 | 105 | 0.0 | 0.0 | 0.00 | 0.62 | 0.62 | 93 | 1010.3 |
| 20260906020002 | 72 | 105 | 0.0 | 0.0 | 0.00 | 0.62 | 0.62 | 93 | 1010.3 |
| 20260906015558 | 72 | 105 | 0.0 | 0.0 | 0.00 | 0.62 | 0.62 | 93 | 1010.3 |
| 20260906015058 | 72 | 105 | 0.0 | 0.0 | 0.00 | 0.62 | 0.62 | 93 | 1010.2 |
| 20260906014559 | 72 | 105 | 0.0 | 0.0 | 0.00 | 0.62 | 0.62 | 92 | 1010.2 |
| 20260906014059 | 72 | 105 | 0.0 | 0.0 | 0.00 | 0.62 | 0.62 | 93 | 1010.2 |
| 20260906013602 | 72 | 105 | 0.0 | 0.0 | 0.00 | 0.62 | 0.62 | 92 | 1010.1 |
| 20260906013105 | 72 | 105 | 0.0 | 0.0 | 0.00 | 0.62 | 0.62 | 92 | 1010.0 |
| 20260906012559 | 73 | 105 | 0.0 | 0.0 | 0.00 | 0.62 | 0.62 | 92 | 1010.0 |
| 20260906012058 | 73 | 105 | 0.0 | 0.0 | 0.00 | 0.62 | 0.62 | 92 | 1010.0 |
| 20260906011604 | 73 | 105 | 0.0 | 0.0 | 0.00 | 0.62 | 0.62 | 92 | 1009.8 |
| 20260906011058 | 73 | 105 | 0.0 | 0.0 | 0.00 | 0.62 | 0.62 | 92 | 1009.9 |
| 20260906010559 | 73 | 105 | 0.0 | 0.0 | 0.00 | 0.62 | 0.62 | 92 | 1009.9 |
| 20260906010059 | 73 | 105 | 0.0 | 0.0 | 0.00 | 0.62 | 0.62 | 92 | 1009.8 |
| 20260906010001 | 73 | 105 | 0.0 | 0.0 | 0.00 | 0.62 | 0.62 | 92 | 1009.8 |
| 20260906005600 | 73 | 105 | 0.0 | 0.0 | 0.00 | 0.62 | 0.62 | 92 | 1009.8 |
| 20260906005058 | 73 | 105 | 0.0 | 0.0 | 0.00 | 0.62 | 0.62 | 92 | 1009.8 |
| 20260906004603 | 73 | 105 | 0.0 | 0.0 | 0.00 | 0.62 | 0.62 | 92 | 1009.8 |
| 20260906004058 | 73 | 105 | 0.0 | 3.0 | 0.00 | 0.62 | 0.62 | 92 | 1009.8 |
| 20260906003558 | 73 | 105 | 0.0 | 3.0 | 0.00 | 0.62 | 0.62 | 91 | 1009.8 |
| 20260906003059 | 73 | 107 | 0.0 | 3.0 | 0.00 | 0.62 | 0.62 | 91 | 1010.0 |
| 20260906002558 | 73 | 107 | 0.0 | 3.0 | 0.00 | 0.62 | 0.62 | 91 | 1009.7 |
| 20260906002100 | 74 | 112 | 0.0 | 5.0 | 0.00 | 0.62 | 0.62 | 91 | 1010.0 |
| 20260906001558 | 74 | 114 | 0.0 | 5.0 | 0.00 | 0.62 | 0.62 | 91 | 1010.0 |
| 20260906001058 | 74 | 307 | 0.0 | 2.0 | 0.00 | 0.62 | 0.62 | 91 | 1010.0 |
| 20260906000600 | 74 | 267 | 0.0 | 1.0 | 0.01 | 0.62 | 0.62 | 91 | 1009.5 |
| 20260906000106 | 74 | 267 | 0.0 | 2.0 | 0.01 | 0.62 | 0.62 | 91 | 1009.4 |
| 20260906000002 | 74 | 267 | 0.0 | 2.0 | 0.01 | 0.62 | 0.62 | 91 | 1009.4 |
| 20260905235600 | 74 | 267 | 0.0 | 2.0 | 0.01 | 0.62 | 0.62 | 91 | 1009.5 |
| 20260905235058 | 74 | 267 | 0.0 | 3.0 | 0.01 | 0.62 | 0.62 | 90 | 1009.5 |
| 20260905234606 | 74 | 251 | 1.0 | 5.0 | 0.01 | 0.62 | 0.62 | 90 | 1009.9 |
| 20260905234058 | 74 | 277 | 2.0 | 5.0 | 0.01 | 0.62 | 0.62 | 90 | 1010.0 |
| 20260905233558 | 74 | 227 | 2.0 | 6.0 | 0.01 | 0.62 | 0.62 | 90 | 1010.0 |
| 20260905233059 | 74 | 255 | 2.0 | 4.0 | 0.01 | 0.62 | 0.62 | 90 | 1010.1 |
| 20260905232558 | 74 | 254 | 0.0 | 4.0 | 0.01 | 0.62 | 0.62 | 90 | 1010.2 |
| 20260905232058 | 74 | 292 | 0.0 | 5.0 | 0.01 | 0.62 | 0.62 | 90 | 1010.2 |
| 20260905231559 | 75 | 302 | 1.0 | 3.0 | 0.01 | 0.62 | 0.62 | 89 | 1010.0 |
| 20260905231058 | 75 | 134 | 0.0 | 3.0 | 0.02 | 0.62 | 0.62 | 89 | 1009.7 |
| 20260905230602 | 75 | 219 | 1.0 | 3.0 | 0.07 | 0.61 | 0.61 | 89 | 1009.7 |
| 20260905230059 | 75 | 140 | 1.0 | 10.0 | 0.24 | 0.61 | 0.61 | 90 | 1009.8 |
| 20260905230001 | 75 | 167 | 0.0 | 10.0 | 0.24 | 0.61 | 0.61 | 89 | 1009.7 |
| 20260905225558 | 75 | 167 | 3.0 | 10.0 | 0.41 | 0.61 | 0.61 | 89 | 1009.3 |
| 20260905225058 | 75 | 145 | 2.0 | 9.0 | 0.56 | 0.61 | 0.61 | 89 | 1009.3 |
| 20260905224559 | 75 | 198 | 3.0 | 8.0 | 0.61 | 0.61 | 0.61 | 88 | 1009.3 |
| 20260905224058 | 76 | 188 | 1.0 | 5.0 | 0.61 | 0.61 | 0.61 | 87 | 1009.0 |
| 20260905223558 | 76 | 238 | 0.0 | 3.0 | 0.61 | 0.61 | 0.61 | 86 | 1008.9 |
| 20260905223058 | 76 | 238 | 0.0 | 3.0 | 0.61 | 0.61 | 0.61 | 86 | 1009.1 |
| 20260905222558 | 76 | 238 | 0.0 | 5.0 | 0.61 | 0.61 | 0.61 | 84 | 1009.4 |
| 20260905222058 | 76 | 180 | 1.0 | 4.0 | 0.61 | 0.61 | 0.61 | 83 | 1009.9 |
| 20260905221558 | 77 | 198 | 2.0 | 3.0 | 0.61 | 0.61 | 0.61 | 82 | 1009.6 |
| 20260905221059 | 77 | 122 | 0.0 | 6.0 | 0.60 | 0.60 | 0.60 | 80 | 1009.5 |
| 20260905220558 | 79 | 126 | 2.0 | 9.0 | 0.54 | 0.54 | 0.54 | 77 | 1010.1 |
| 20260905220058 | 81 | 53 | 2.0 | 11.0 | 0.37 | 0.37 | 0.37 | 73 | 1010.8 |
| 20260905220002 | 81 | 53 | 3.0 | 11.0 | 0.35 | 0.35 | 0.35 | 72 | 1010.8 |
| 20260905215558 | 84 | 37 | 4.0 | 14.0 | 0.20 | 0.20 | 0.20 | 70 | 1011.1 |
| 20260905215058 | 87 | 26 | 5.0 | 20.0 | 0.04 | 0.04 | 0.04 | 64 | 1011.2 |
| 20260905214558 | 91 | 32 | 6.0 | 26.0 | 0.00 | 0.00 | 0.00 | 54 | 1010.1 |
| 20260905214058 | 95 | 285 | 5.0 | 26.0 | 0.00 | 0.00 | 0.00 | 50 | 1009.4 |
| 20260905213559 | 99 | 21 | 3.0 | 15.0 | 0.00 | 0.00 | 0.00 | 45 | 1008.7 |
| 20260905213101 | 101 | 333 | 0.0 | 3.0 | 0.00 | 0.00 | 0.00 | 42 | 1008.2 |
| 20260905212558 | 101 | 333 | 1.0 | 3.0 | 0.00 | 0.00 | 0.00 | 41 | 1007.7 |
| 20260905212059 | 102 | 333 | 1.0 | 3.0 | 0.00 | 0.00 | 0.00 | 40 | 1007.4 |
| 20260905211610 | 103 | 333 | 0.0 | 2.0 | 0.00 | 0.00 | 0.00 | 41 | 1007.5 |
| 20260905211059 | 103 | 333 | 0.0 | 3.0 | 0.00 | 0.00 | 0.00 | 40 | 1007.4 |
| 20260905210558 | 103 | 333 | 0.0 | 3.0 | 0.00 | 0.00 | 0.00 | 39 | 1007.4 |
| 20260905210105 | 103 | 334 | 1.0 | 3.0 | 0.00 | 0.00 | 0.00 | 39 | 1007.4 |
| 20260905210000 | 103 | 334 | 1.0 | 3.0 | 0.00 | 0.00 | 0.00 | 38 | 1007.4 |
| 20260905205558 | 104 | 26 | 0.0 | 5.0 | 0.00 | 0.00 | 0.00 | 38 | 1007.6 |
| 20260905205058 | 104 | 36 | 0.0 | 8.0 | 0.00 | 0.00 | 0.00 | 37 | 1007.5 |
| 20260905204607 | 104 | 26 | 0.0 | 8.0 | 0.00 | 0.00 | 0.00 | 36 | 1007.5 |
| 20260905204101 | 104 | 338 | 1.0 | 5.0 | 0.00 | 0.00 | 0.00 | 36 | 1007.4 |
| 20260905203558 | 104 | 355 | 1.0 | 5.0 | 0.00 | 0.00 | 0.00 | 35 | 1007.5 |
| 20260905203113 | 104 | 332 | 1.0 | 9.0 | 0.00 | 0.00 | 0.00 | 37 | 1007.5 |
| 20260905202558 | 104 | 260 | 2.0 | 9.0 | 0.00 | 0.00 | 0.00 | 36 | 1007.5 |
| 20260905202100 | 104 | 27 | 1.0 | 3.0 | 0.00 | 0.00 | 0.00 | 37 | 1007.6 |
| 20260905201605 | 104 | 57 | 0.0 | 6.0 | 0.00 | 0.00 | 0.00 | 37 | 1007.7 |
| 20260905201059 | 104 | 42 | 2.0 | 6.0 | 0.00 | 0.00 | 0.00 | 37 | 1007.9 |
| 20260905200558 | 104 | 355 | 3.0 | 5.0 | 0.00 | 0.00 | 0.00 | 37 | 1007.9 |
| 20260905200117 | 103 | 338 | 1.0 | 3.0 | 0.00 | 0.00 | 0.00 | 39 | 1007.8 |
| 20260905200001 | 103 | 350 | 1.0 | 4.0 | 0.00 | 0.00 | 0.00 | 39 | 1007.8 |
| 20260905195558 | 103 | 349 | 2.0 | 5.0 | 0.00 | 0.00 | 0.00 | 39 | 1007.8 |
| 20260905195058 | 102 | 323 | 2.0 | 5.0 | 0.00 | 0.00 | 0.00 | 40 | 1007.8 |
| 20260905194606 | 102 | 34 | 3.0 | 5.0 | 0.00 | 0.00 | 0.00 | 41 | 1007.9 |
| 20260905194058 | 101 | 293 | 0.0 | 7.0 | 0.00 | 0.00 | 0.00 | 41 | 1007.8 |
| 20260905193558 | 101 | 150 | 3.0 | 7.0 | 0.00 | 0.00 | 0.00 | 43 | 1008.0 |
| 20260905193100 | 101 | 286 | 3.0 | 7.0 | 0.00 | 0.00 | 0.00 | 43 | 1008.0 |
| 20260905192558 | 100 | 273 | 3.0 | 7.0 | 0.00 | 0.00 | 0.00 | 43 | 1008.1 |
| 20260905192059 | 100 | 227 | 2.0 | 5.0 | 0.00 | 0.00 | 0.00 | 44 | 1008.2 |
| 20260905191559 | 100 | 273 | 0.0 | 3.0 | 0.00 | 0.00 | 0.00 | 45 | 1008.3 |
| 20260905191058 | 100 | 273 | 1.0 | 4.0 | 0.00 | 0.00 | 0.00 | 45 | 1008.4 |
| 20260905190559 | 100 | 223 | 2.0 | 4.0 | 0.00 | 0.00 | 0.00 | 44 | 1008.4 |
| 20260905190058 | 100 | 275 | 1.0 | 4.0 | 0.00 | 0.00 | 0.00 | 44 | 1008.5 |
| 20260905190003 | 100 | 275 | 2.0 | 4.0 | 0.00 | 0.00 | 0.00 | 45 | 1008.6 |
| 20260905185601 | 101 | 289 | 3.0 | 6.0 | 0.00 | 0.00 | 0.00 | 45 | 1008.6 |
| 20260905185058 | 100 | 231 | 3.0 | 6.0 | 0.00 | 0.00 | 0.00 | 45 | 1008.7 |
| 20260905184559 | 100 | 274 | 1.0 | 4.0 | 0.00 | 0.00 | 0.00 | 46 | 1008.8 |
| 20260905184058 | 100 | 289 | 0.0 | 6.0 | 0.00 | 0.00 | 0.00 | 46 | 1008.9 |
| 20260905183558 | 100 | 46 | 1.0 | 6.0 | 0.00 | 0.00 | 0.00 | 46 | 1009.0 |
| 20260905183059 | 101 | 80 | 0.0 | 4.0 | 0.00 | 0.00 | 0.00 | 44 | 1009.2 |
| 20260905182558 | 101 | 37 | 0.0 | 6.0 | 0.00 | 0.00 | 0.00 | 45 | 1009.2 |
| 20260905182058 | 101 | 52 | 2.0 | 5.0 | 0.00 | 0.00 | 0.00 | 43 | 1009.3 |
| 20260905181558 | 100 | 273 | 2.0 | 7.0 | 0.00 | 0.00 | 0.00 | 44 | 1009.3 |
| 20260905181058 | 100 | 113 | 3.0 | 7.0 | 0.00 | 0.00 | 0.00 | 45 | 1009.4 |
| 20260905180558 | 100 | 105 | 1.0 | 3.0 | 0.00 | 0.00 | 0.00 | 44 | 1009.7 |
| 20260905180104 | 100 | 63 | 0.0 | 2.0 | 0.00 | 0.00 | 0.00 | 42 | 1009.7 |
| 20260905175602 | 100 | 56 | 0.0 | 3.0 | 0.00 | 0.00 | 0.00 | 44 | 1009.7 |
| 20260905175058 | 101 | 37 | 1.0 | 3.0 | 0.00 | 0.00 | 0.00 | 44 | 1009.8 |
| 20260905174558 | 100 | 186 | 0.0 | 2.0 | 0.00 | 0.00 | 0.00 | 47 | 1009.9 |
| 20260905174102 | 100 | 344 | 0.0 | 4.0 | 0.00 | 0.00 | 0.00 | 46 | 1010.0 |
| 20260905173558 | 100 | 339 | 0.0 | 5.0 | 0.00 | 0.00 | 0.00 | 47 | 1010.0 |
| 20260905173104 | 100 | 332 | 1.0 | 5.0 | 0.00 | 0.00 | 0.00 | 47 | 1010.1 |
| 20260905172558 | 100 | 328 | 2.0 | 5.0 | 0.00 | 0.00 | 0.00 | 48 | 1010.0 |
| 20260905172058 | 99 | 159 | 1.0 | 5.0 | 0.00 | 0.00 | 0.00 | 48 | 1010.2 |
| 20260905171559 | 99 | 271 | 1.0 | 10.0 | 0.00 | 0.00 | 0.00 | 48 | 1010.3 |
| 20260905171058 | 98 | 214 | 1.0 | 10.0 | 0.00 | 0.00 | 0.00 | 49 | 1010.4 |
| 20260905170558 | 98 | 117 | 2.0 | 4.0 | 0.00 | 0.00 | 0.00 | 49 | 1010.4 |
| 20260905170105 | 98 | 190 | 2.0 | 6.0 | 0.00 | 0.00 | 0.00 | 51 | 1010.5 |
| 20260905170001 | 98 | 167 | 0.0 | 6.0 | 0.00 | 0.00 | 0.00 | 51 | 1010.5 |
| 20260905165558 | 98 | 101 | 2.0 | 6.0 | 0.00 | 0.00 | 0.00 | 50 | 1010.8 |
| 20260905165058 | 98 | 187 | 2.0 | 6.0 | 0.00 | 0.00 | 0.00 | 50 | 1010.8 |
| 20260905164558 | 98 | 204 | 1.0 | 4.0 | 0.00 | 0.00 | 0.00 | 50 | 1010.9 |
| 20260905164058 | 97 | 294 | 1.0 | 4.0 | 0.00 | 0.00 | 0.00 | 52 | 1010.9 |
| 20260905163558 | 97 | 283 | 2.0 | 4.0 | 0.00 | 0.00 | 0.00 | 51 | 1011.0 |
| 20260905163058 | 97 | 281 | 0.0 | 4.0 | 0.00 | 0.00 | 0.00 | 51 | 1011.0 |
| 20260905162557 | 97 | 165 | 0.0 | 7.0 | 0.00 | 0.00 | 0.00 | 51 | 1011.0 |
| 20260905162057 | 97 | 265 | 1.0 | 8.0 | 0.00 | 0.00 | 0.00 | 51 | 1011.1 |
| 20260905161558 | 96 | 280 | 1.0 | 3.0 | 0.00 | 0.00 | 0.00 | 51 | 1011.2 |
| 20260905161058 | 96 | 95 | 0.0 | 5.0 | 0.00 | 0.00 | 0.00 | 53 | 1011.3 |
| 20260905160558 | 96 | 234 | 2.0 | 8.0 | 0.00 | 0.00 | 0.00 | 52 | 1011.4 |
| 20260905160058 | 96 | 205 | 4.0 | 9.0 | 0.00 | 0.00 | 0.00 | 53 | 1011.4 |
| 20260905155557 | 95 | 213 | 2.0 | 7.0 | 0.00 | 0.00 | 0.00 | 54 | 1011.5 |
| 20260905155057 | 95 | 345 | 2.0 | 7.0 | 0.00 | 0.00 | 0.00 | 54 | 1011.5 |
| 20260905154603 | 95 | 273 | 2.0 | 6.0 | 0.00 | 0.00 | 0.00 | 56 | 1011.5 |
| 20260905154057 | 95 | 225 | 1.0 | 7.0 | 0.00 | 0.00 | 0.00 | 56 | 1011.7 |
| 20260905153557 | 94 | 181 | 1.0 | 7.0 | 0.00 | 0.00 | 0.00 | 57 | 1011.7 |
| 20260905153057 | 94 | 194 | 3.0 | 7.0 | 0.00 | 0.00 | 0.00 | 58 | 1011.8 |
| 20260905152557 | 94 | 319 | 2.0 | 10.0 | 0.00 | 0.00 | 0.00 | 58 | 1011.9 |
| 20260905152058 | 94 | 253 | 3.0 | 10.0 | 0.00 | 0.00 | 0.00 | 57 | 1011.9 |
| 20260905151601 | 94 | 219 | 1.0 | 5.0 | 0.00 | 0.00 | 0.00 | 58 | 1011.9 |
| 20260905151056 | 93 | 261 | 1.0 | 3.0 | 0.00 | 0.00 | 0.00 | 59 | 1012.0 |
| 20260905150600 | 93 | 317 | 0.0 | 5.0 | 0.00 | 0.00 | 0.00 | 62 | 1012.0 |
| 20260905150057 | 92 | 194 | 1.0 | 5.0 | 0.00 | 0.00 | 0.00 | 62 | 1012.0 |
| 20260905145557 | 91 | 282 | 0.0 | 3.0 | 0.00 | 0.00 | 0.00 | 64 | 1012.0 |
| 20260905145059 | 90 | 281 | 0.0 | 4.0 | 0.00 | 0.00 | 0.00 | 65 | 1012.1 |
| 20260905144600 | 90 | 267 | 1.0 | 4.0 | 0.00 | 0.00 | 0.00 | 67 | 1012.2 |
| 20260905144058 | 89 | 340 | 1.0 | 4.0 | 0.00 | 0.00 | 0.00 | 69 | 1012.2 |
| 20260905143601 | 88 | 216 | 0.0 | 4.0 | 0.00 | 0.00 | 0.00 | 70 | 1012.3 |
| 20260905143058 | 88 | 227 | 2.0 | 4.0 | 0.00 | 0.00 | 0.00 | 72 | 1012.4 |
| 20260905142559 | 87 | 241 | 1.0 | 4.0 | 0.00 | 0.00 | 0.00 | 72 | 1012.3 |
| 20260905142058 | 87 | 241 | 2.0 | 6.0 | 0.00 | 0.00 | 0.00 | 73 | 1012.4 |
| 20260905141558 | 86 | 242 | 1.0 | 6.0 | 0.00 | 0.00 | 0.00 | 74 | 1012.4 |
| 20260905141102 | 86 | 209 | 3.0 | 6.0 | 0.00 | 0.00 | 0.00 | 75 | 1012.5 |
| 20260905140559 | 86 | 245 | 2.0 | 6.0 | 0.00 | 0.00 | 0.00 | 75 | 1012.4 |
| 20260905140058 | 85 | 263 | 1.0 | 4.0 | 0.00 | 0.00 | 0.00 | 77 | 1012.4 |
| 20260905135558 | 85 | 215 | 2.0 | 4.0 | 0.00 | 0.00 | 0.00 | 78 | 1012.4 |
| 20260905135057 | 84 | 231 | 0.0 | 3.0 | 0.00 | 0.00 | 0.00 | 80 | 1012.4 |
| 20260905134602 | 83 | 235 | 1.0 | 5.0 | 0.00 | 0.00 | 0.00 | 81 | 1012.4 |
| 20260905134058 | 83 | 243 | 2.0 | 5.0 | 0.00 | 0.00 | 0.00 | 83 | 1012.4 |
| 20260905133601 | 82 | 191 | 2.0 | 4.0 | 0.00 | 0.00 | 0.00 | 85 | 1012.4 |
| 20260905133059 | 81 | 221 | 1.0 | 4.0 | 0.00 | 0.00 | 0.00 | 87 | 1012.6 |
| 20260905132558 | 81 | 221 | 1.0 | 5.0 | 0.00 | 0.00 | 0.00 | 88 | 1012.7 |
| 20260905132058 | 80 | 213 | 3.0 | 5.0 | 0.00 | 0.00 | 0.00 | 89 | 1012.6 |
| 20260905131606 | 79 | 192 | 1.0 | 4.0 | 0.00 | 0.00 | 0.00 | 90 | 1012.7 |
| 20260905131058 | 79 | 248 | 0.0 | 3.0 | 0.00 | 0.00 | 0.00 | 91 | 1012.7 |
| 20260905130558 | 78 | 248 | 1.0 | 5.0 | 0.00 | 0.00 | 0.00 | 92 | 1012.8 |
| 20260905130058 | 78 | 249 | 2.0 | 5.0 | 0.00 | 0.00 | 0.00 | 92 | 1012.8 |
| 20260905125558 | 78 | 264 | 1.0 | 6.0 | 0.00 | 0.00 | 0.00 | 92 | 1012.8 |
| 20260905125058 | 77 | 217 | 2.0 | 6.0 | 0.00 | 0.00 | 0.00 | 93 | 1012.7 |
| 20260905124558 | 77 | 225 | 1.0 | 5.0 | 0.00 | 0.00 | 0.00 | 93 | 1012.7 |
| 20260905124057 | 77 | 177 | 1.0 | 7.0 | 0.00 | 0.00 | 0.00 | 93 | 1012.7 |
| 20260905123558 | 77 | 263 | 3.0 | 7.0 | 0.00 | 0.00 | 0.00 | 93 | 1012.8 |
| 20260905123104 | 76 | 279 | 1.0 | 5.0 | 0.00 | 0.00 | 0.00 | 93 | 1012.7 |
| 20260905122058 | 76 | 267 | 1.0 | 6.0 | 0.00 | 0.00 | 0.00 | 93 | 1012.7 |
| 20260905121558 | 76 | 248 | 3.0 | 6.0 | 0.00 | 0.00 | 0.00 | 93 | 1012.6 |
| 20260905121058 | 76 | 264 | 0.0 | 3.0 | 0.00 | 0.00 | 0.00 | 93 | 1012.6 |
| 20260905120557 | 75 | 264 | 1.0 | 3.0 | 0.00 | 0.00 | 0.00 | 93 | 1012.5 |
| 20260905120058 | 75 | 251 | 0.0 | 3.0 | 0.00 | 0.00 | 0.00 | 93 | 1012.6 |
| 20260905115557 | 75 | 247 | 0.0 | 5.0 | 0.00 | 0.00 | 0.00 | 93 | 1012.5 |
| 20260905115058 | 75 | 252 | 0.0 | 4.0 | 0.00 | 0.00 | 0.00 | 93 | 1012.5 |
| 20260905114557 | 75 | 234 | 0.0 | 5.0 | 0.00 | 0.00 | 0.00 | 93 | 1012.5 |
| 20260905114057 | 74 | 236 | 1.0 | 5.0 | 0.00 | 0.00 | 0.00 | 93 | 1012.4 |
| 20260905113557 | 74 | 206 | 0.0 | 2.0 | 0.00 | 0.00 | 0.00 | 92 | 1012.3 |
| 20260905113057 | 74 | 206 | 0.0 | 0.0 | 0.00 | 0.00 | 0.00 | 92 | 1012.3 |
| 20260905112557 | 74 | 206 | 0.0 | 0.0 | 0.00 | 0.00 | 0.00 | 92 | 1012.3 |
| 20260905112100 | 74 | 206 | 0.0 | 0.0 | 0.00 | 0.00 | 0.00 | 92 | 1012.4 |
| 20260905111557 | 74 | 206 | 0.0 | 0.0 | 0.00 | 0.00 | 0.00 | 92 | 1012.3 |
| 20260905111057 | 75 | 206 | 0.0 | 0.0 | 0.00 | 0.00 | 0.00 | 92 | 1012.1 |
| 20260905110556 | 75 | 206 | 0.0 | 1.0 | 0.00 | 0.00 | 0.00 | 92 | 1012.1 |
| 20260905110109 | 75 | 206 | 0.0 | 1.0 | 0.00 | 0.00 | 0.00 | 92 | 1012.0 |
| 20260905105558 | 75 | 206 | 0.0 | 1.0 | 0.00 | 0.00 | 0.00 | 92 | 1012.0 |
| 20260905105058 | 75 | 206 | 0.0 | 2.0 | 0.00 | 0.00 | 0.00 | 92 | 1011.9 |
| 20260905104558 | 75 | 206 | 0.0 | 2.0 | 0.00 | 0.00 | 0.00 | 92 | 1011.9 |
| 20260905104058 | 75 | 206 | 0.0 | 0.0 | 0.00 | 0.00 | 0.00 | 91 | 1011.8 |
| 20260905103601 | 75 | 206 | 0.0 | 0.0 | 0.00 | 0.00 | 0.00 | 91 | 1011.9 |
| 20260905103058 | 75 | 206 | 0.0 | 0.0 | 0.00 | 0.00 | 0.00 | 91 | 1011.9 |
| 20260905102557 | 75 | 206 | 0.0 | 0.0 | 0.00 | 0.00 | 0.00 | 91 | 1011.9 |
| 20260905102101 | 75 | 206 | 0.0 | 0.0 | 0.00 | 0.00 | 0.00 | 91 | 1011.8 |
| 20260905101608 | 75 | 206 | 0.0 | 0.0 | 0.00 | 0.00 | 0.00 | 91 | 1011.8 |
| 20260905101057 | 75 | 206 | 0.0 | 0.0 | 0.00 | 0.00 | 0.00 | 91 | 1011.7 |
| 20260905100600 | 75 | 206 | 0.0 | 0.0 | 0.00 | 0.00 | 0.00 | 91 | 1011.8 |
| 20260905100057 | 75 | 206 | 0.0 | 0.0 | 0.00 | 0.00 | 0.00 | 91 | 1011.7 |
| 20260905095557 | 75 | 206 | 0.0 | 0.0 | 0.00 | 0.00 | 0.00 | 91 | 1011.5 |
| 20260905095058 | 75 | 206 | 0.0 | 0.0 | 0.00 | 0.00 | 0.00 | 91 | 1011.5 |
| 20260905094558 | 75 | 206 | 0.0 | 0.0 | 0.00 | 0.00 | 0.00 | 90 | 1011.5 |
| 20260905094057 | 75 | 206 | 0.0 | 0.0 | 0.00 | 0.00 | 0.00 | 90 | 1011.7 |
| 20260905093558 | 76 | 206 | 0.0 | 0.0 | 0.00 | 0.00 | 0.00 | 90 | 1011.7 |
| 20260905093116 | 76 | 206 | 0.0 | 0.0 | 0.00 | 0.00 | 0.00 | 90 | 1011.7 |
| 20260905092557 | 76 | 206 | 0.0 | 0.0 | 0.00 | 0.00 | 0.00 | 90 | 1011.7 |
| 20260905092057 | 76 | 206 | 0.0 | 0.0 | 0.00 | 0.00 | 0.00 | 90 | 1011.6 |
| 20260905091605 | 76 | 206 | 0.0 | 0.0 | 0.00 | 0.00 | 0.00 | 90 | 1011.7 |
| 20260905091059 | 76 | 206 | 0.0 | 0.0 | 0.00 | 0.00 | 0.00 | 90 | 1011.8 |